Weather History for KBWG - May, 2013

Change the Weather History Date:

Friday, May 10, 2013

  Actual Average Record
Temperature  
Mean Temperature 68 °F 65 °F  
Max Temperature 71 °F 76 °F 96 °F (1936)
Min Temperature 64 °F 53 °F 32 °F (1885)
Degree Days  
Heating Degree Days 0 3  
Month to date heating degree days 26 37  
Since 1 July heating degree days 3844 4006  
Cooling Degree Days 3 3  
Month to date cooling degree days 22 22  
Year to date cooling degree days 75 58  
Growing Degree Days 18 (Base 50)    
Moisture  
Dew Point 62 °F    
Average Humidity 80    
Maximum Humidity 93    
Minimum Humidity 66    
Precipitation  
Precipitation 1.29 in 0.19 in 1.30 in (1973)
Month to date precipitation 3.53 1.85  
Year to date precipitation 23.13 18.17  
Snow  
Snow 0.00 in 0.00 in 0.00 in ()
Month to date snowfall 0.0 0.0  
Since 1 July snowfall 3.8 9.1  
Snow Depth 0.00 in    
Sea Level Pressure  
Sea Level Pressure 29.93 in    
Wind  
Wind Speed 8 mph (SSW)    
Max Wind Speed 20 mph    
Max Gust Speed 25 mph    
Visibility 7 miles    
Events Rain , Thunderstorm    
T = Trace of Precipitation, MM = Missing Value Source: NWS Daily Summary

Daily Weather History Graph

Daily Weather History Graph

Search for Another Location

Airport or City:

Trip Planner

Search our weather history database for the weather conditions in past years. The results will help you decide how hot, cold, wet, or windy it might be!

Date:

Astronomy

May. 10, 2013 Rise Set
Actual Time 5:41 AM CDT 7:42 PM CDT
Civil Twilight 5:13 AM CDT 8:11 PM CDT
Nautical Twilight 4:38 AM CDT 8:46 PM CDT
Astronomical Twilight 4:01 AM CDT 9:24 PM CDT
Moon 6:05 AM CDT (5/10) 8:31 PM CDT (5/10)
Length of Visible Light 14h 58m
Length of Day
14h 00m
New Moon, 0% of the Moon is Illuminated
May 10
New Moon
May 17
First Quarter
May 24
Full
May 31
Last Quarter
Jun 8
New

Hourly Weather History & Observations

Time (CDT) Temp. Dew Point Humidity Pressure Visibility Wind Dir Wind Speed Gust Speed Precip Events Conditions
12:53 AM 70.0 °F 57.9 °F 65% 29.98 in 10.0 mi SSW 3.5 mph - N/A   Clear
1:53 AM 69.1 °F 57.9 °F 68% 29.96 in 10.0 mi South 4.6 mph - N/A   Mostly Cloudy
2:53 AM 69.1 °F 57.9 °F 68% 29.94 in 10.0 mi SSW 5.8 mph - N/A   Clear
3:53 AM 69.1 °F 57.9 °F 68% 29.93 in 10.0 mi South 5.8 mph - N/A   Partly Cloudy
4:53 AM 68.0 °F 57.9 °F 70% 29.91 in 10.0 mi Calm Calm - N/A   Mostly Cloudy
5:53 AM 69.1 °F 60.1 °F 73% 29.91 in 10.0 mi South 5.8 mph - 0.01 in   Overcast
6:49 AM 69.8 °F 60.8 °F 73% 29.94 in 3.0 mi WSW 8.1 mph - 0.09 in Rain , Thunderstorm Light Thunderstorms and Rain
6:51 AM 68.0 °F 60.8 °F 78% 29.94 in 1.8 mi WSW 10.4 mph - 0.12 in Rain , Thunderstorm Heavy Thunderstorms and Rain
6:57 AM 66.2 °F 62.6 °F 88% 29.94 in 1.2 mi SW 11.5 mph 18.4 mph 0.04 in Rain , Thunderstorm Heavy Thunderstorms and Rain
7:01 AM 66.2 °F 62.6 °F 88% 29.94 in 2.0 mi WSW 10.4 mph 18.4 mph 0.07 in Rain , Thunderstorm Heavy Thunderstorms and Rain
7:07 AM 66.2 °F 62.6 °F 88% 29.94 in 3.0 mi WSW 10.4 mph - 0.09 in Rain , Thunderstorm Thunderstorms and Rain
7:28 AM 66.2 °F 62.6 °F 88% 29.95 in 10.0 mi WSW 5.8 mph - 0.09 in Rain Light Rain
7:53 AM 66.9 °F 62.1 °F 84% 29.94 in 10.0 mi SW 3.5 mph - 0.10 in Rain Light Rain
8:21 AM 66.2 °F 62.6 °F 88% 29.95 in 10.0 mi SW 5.8 mph - 0.00 in Rain Light Rain
8:53 AM 66.9 °F 63.0 °F 87% 29.96 in 9.0 mi SSW 8.1 mph - 0.02 in Rain Light Rain
9:24 AM 66.2 °F 62.6 °F 88% 29.98 in 6.0 mi South 8.1 mph - 0.04 in Rain Rain
9:32 AM 66.2 °F 62.6 °F 88% 29.98 in 2.5 mi South 10.4 mph - 0.11 in Rain Heavy Rain
9:41 AM 66.2 °F 62.6 °F 88% 29.98 in 3.0 mi SSW 9.2 mph - 0.17 in Rain Heavy Rain
9:53 AM 66.0 °F 62.1 °F 87% 29.97 in 3.0 mi South 10.4 mph - 0.25 in Rain Heavy Rain
10:04 AM 66.2 °F 62.6 °F 88% 29.97 in 5.0 mi South 8.1 mph - 0.04 in Rain Rain
10:31 AM 66.2 °F 62.6 °F 88% 29.96 in 4.0 mi SSE 6.9 mph - 0.10 in Rain Rain
10:38 AM 66.2 °F 62.6 °F 88% 29.96 in 5.0 mi South 6.9 mph - 0.11 in Rain Light Rain
10:53 AM 66.9 °F 63.0 °F 87% 29.95 in 8.0 mi South 11.5 mph - 0.12 in Rain Light Rain
11:24 AM 66.2 °F 60.8 °F 83% 29.95 in 5.0 mi South 13.8 mph 24.2 mph 0.04 in Rain Rain
11:34 AM 66.2 °F 62.6 °F 88% 29.95 in 5.0 mi South 9.2 mph - 0.05 in Rain Light Rain
11:53 AM 66.0 °F 61.0 °F 84% 29.93 in 10.0 mi South 16.1 mph 25.3 mph 0.06 in Rain Light Rain
11:59 AM 66.2 °F 60.8 °F 83% 29.94 in 10.0 mi South 16.1 mph 24.2 mph 0.00 in Rain Light Rain
12:53 PM 66.0 °F 61.0 °F 84% 29.91 in 10.0 mi South 11.5 mph - 0.04 in Rain Light Rain
1:14 PM 66.2 °F 62.6 °F 88% 29.93 in 10.0 mi South 12.7 mph - 0.00 in Rain Light Rain
1:53 PM 66.9 °F 62.1 °F 84% 29.91 in 8.0 mi South 15.0 mph - 0.00 in Rain Light Rain
2:53 PM 69.1 °F 62.1 °F 78% 29.89 in 10.0 mi SSW 12.7 mph 21.9 mph 0.00 in   Overcast
3:53 PM 68.0 °F 63.0 °F 84% 29.88 in 5.0 mi SW 9.2 mph - 0.03 in Rain Light Rain
4:04 PM 66.2 °F 62.6 °F 88% 29.90 in 2.5 mi WSW 6.9 mph - 0.06 in Rain Rain
4:07 PM 66.2 °F 62.6 °F 88% 29.90 in 1.5 mi West 8.1 mph - 0.11 in Rain Heavy Rain
4:12 PM 66.2 °F 62.6 °F 88% 29.90 in 1.2 mi SW 8.1 mph - 0.13 in Rain Rain
4:19 PM 66.2 °F 62.6 °F 88% 29.90 in 1.5 mi WSW 8.1 mph - 0.18 in Rain Heavy Rain
4:27 PM 66.2 °F 62.6 °F 88% 29.90 in 3.0 mi SSW 8.1 mph - 0.19 in Rain Light Rain
4:39 PM 66.2 °F 62.6 °F 88% 29.90 in 6.0 mi WSW 5.8 mph - 0.21 in Rain Rain
4:53 PM 66.9 °F 63.0 °F 87% 29.89 in 7.0 mi SW 8.1 mph - 0.22 in Rain Light Rain
5:11 PM 68.0 °F 64.4 °F 88% 29.89 in 7.0 mi SSW 5.8 mph - 0.02 in Rain Light Rain
5:49 PM 69.8 °F 64.4 °F 83% 29.89 in 10.0 mi SW 8.1 mph - 0.02 in   Overcast
5:53 PM 69.1 °F 64.0 °F 84% 29.88 in 10.0 mi SW 9.2 mph - 0.02 in   Overcast
6:53 PM 69.1 °F 63.0 °F 81% 29.89 in 10.0 mi SSW 10.4 mph - N/A   Overcast
7:01 PM 69.8 °F 62.6 °F 78% 29.90 in 10.0 mi SSW 8.1 mph - N/A   Overcast
7:53 PM 68.0 °F 63.0 °F 84% 29.90 in 10.0 mi Calm Calm - N/A   Overcast
8:08 PM 68.0 °F 62.6 °F 83% 29.91 in 10.0 mi Calm Calm - N/A   Overcast
8:31 PM 68.0 °F 62.6 °F 83% 29.90 in 10.0 mi South 4.6 mph - 0.01 in Rain Light Rain
8:53 PM 66.9 °F 64.0 °F 90% 29.91 in 10.0 mi South 4.6 mph - 0.01 in   Overcast
9:53 PM 66.0 °F 62.1 °F 87% 29.91 in 10.0 mi Calm Calm - N/A   Partly Cloudy
10:53 PM 66.9 °F 63.0 °F 87% 29.91 in 6.0 mi SSW 5.8 mph - 0.04 in Rain Rain
10:58 PM 66.2 °F 62.6 °F 88% 29.92 in 2.5 mi WSW 4.6 mph - 0.07 in Rain Heavy Rain
11:06 PM 66.2 °F 62.6 °F 88% 29.93 in 3.0 mi Calm Calm - 0.10 in Rain Rain
11:15 PM 66.2 °F 62.6 °F 88% 29.93 in 7.0 mi SW 3.5 mph - 0.12 in Rain Light Rain
11:53 PM 64.9 °F 61.0 °F 87% 29.92 in 8.0 mi WSW 5.8 mph - 0.21 in Rain Light Rain